Time,TemperatureF,DewpointF,PressureIn,WindDirection,WindDirectionDegrees,WindSpeedMPH,WindSpeedGustMPH,Humidity,HourlyPrecipIn,Conditions,Clouds,dailyrainin,SoftwareType,DateUTC
2013-09-09 00:08:00,71.5,70.0,29.96,ESE,107,0.0,-999.0,95,-99.99,,,0.00,weatherlink.com 1.10,2013-09-09 05:08:00,
2013-09-09 00:23:00,71.3,70.0,29.96,ESE,107,0.0,-999.0,94,-99.99,,,0.00,weatherlink.com 1.10,2013-09-09 05:23:00,
2013-09-09 00:38:00,71.2,69.0,29.96,ESE,107,0.0,-999.0,94,-99.99,,,0.00,weatherlink.com 1.10,2013-09-09 05:38:00,
2013-09-09 00:53:00,70.9,69.0,29.96,ESE,107,0.0,-999.0,94,-99.99,,,0.00,weatherlink.com 1.10,2013-09-09 05:53:00,
2013-09-09 01:08:00,70.6,69.0,29.96,ESE,107,0.0,-999.0,94,-99.99,,,0.00,weatherlink.com 1.10,2013-09-09 06:08:00,
2013-09-09 01:23:00,70.2,69.0,29.96,ESE,107,0.0,-999.0,94,-99.99,,,0.00,weatherlink.com 1.10,2013-09-09 06:23:00,
2013-09-09 01:38:00,70.0,69.0,29.96,ESE,107,0.0,-999.0,95,-99.99,,,0.00,weatherlink.com 1.10,2013-09-09 06:38:00,
2013-09-09 01:53:00,69.8,68.0,29.96,ESE,107,0.0,-999.0,95,-99.99,,,0.00,weatherlink.com 1.10,2013-09-09 06:53:00,
2013-09-09 02:08:00,69.8,68.0,29.96,ESE,107,0.0,-999.0,95,-99.99,,,0.00,weatherlink.com 1.10,2013-09-09 07:08:00,
2013-09-09 02:23:00,69.6,68.0,29.96,ESE,107,0.0,-999.0,95,-99.99,,,0.00,weatherlink.com 1.10,2013-09-09 07:23:00,
2013-09-09 02:38:00,69.3,68.0,29.96,ESE,107,0.0,-999.0,95,-99.99,,,0.00,weatherlink.com 1.10,2013-09-09 07:38:00,
2013-09-09 02:53:00,69.1,68.0,29.96,ESE,107,0.0,-999.0,95,-99.99,,,0.00,weatherlink.com 1.10,2013-09-09 07:53:00,
2013-09-09 03:08:00,69.0,68.0,29.96,ESE,107,0.0,-999.0,95,-99.99,,,0.00,weatherlink.com 1.10,2013-09-09 08:08:00,
2013-09-09 03:23:00,68.8,67.0,29.96,ESE,107,0.0,-999.0,95,-99.99,,,0.00,weatherlink.com 1.10,2013-09-09 08:23:00,
2013-09-09 03:53:00,68.5,67.0,29.97,ESE,107,0.0,-999.0,95,-99.99,,,0.00,weatherlink.com 1.10,2013-09-09 08:53:00,
2013-09-09 04:08:00,68.4,67.0,29.97,ESE,107,0.0,-999.0,96,-99.99,,,0.00,weatherlink.com 1.10,2013-09-09 09:08:00,
2013-09-09 04:23:00,68.4,67.0,29.98,ESE,107,0.0,-999.0,96,-99.99,,,0.00,weatherlink.com 1.10,2013-09-09 09:23:00,
2013-09-09 04:38:00,68.3,67.0,29.98,ESE,107,0.0,-999.0,96,-99.99,,,0.00,weatherlink.com 1.10,2013-09-09 09:38:00,
2013-09-09 04:53:00,68.3,67.0,29.98,ESE,107,0.0,-999.0,96,-99.99,,,0.00,weatherlink.com 1.10,2013-09-09 09:53:00,
2013-09-09 05:08:00,68.2,67.0,29.98,ESE,107,0.0,-999.0,96,-99.99,,,0.00,weatherlink.com 1.10,2013-09-09 10:08:00,
2013-09-09 05:23:00,68.2,67.0,29.99,ESE,107,0.0,-999.0,96,-99.99,,,0.00,weatherlink.com 1.10,2013-09-09 10:23:00,
2013-09-09 05:38:00,68.1,67.0,29.99,ESE,107,0.0,-999.0,96,-99.99,,,0.00,weatherlink.com 1.10,2013-09-09 10:38:00,
2013-09-09 05:53:00,67.9,67.0,29.99,ESE,107,0.0,-999.0,96,-99.99,,,0.00,weatherlink.com 1.10,2013-09-09 10:53:00,
2013-09-09 06:08:00,67.7,67.0,29.99,ESE,107,0.0,-999.0,96,-99.99,,,0.00,weatherlink.com 1.10,2013-09-09 11:08:00,
2013-09-09 06:23:00,67.5,66.0,29.99,ESE,107,0.0,-999.0,96,-99.99,,,0.00,weatherlink.com 1.10,2013-09-09 11:23:00,
2013-09-09 06:38:00,67.3,66.0,30.00,ESE,107,0.0,-999.0,96,-99.99,,,0.00,weatherlink.com 1.10,2013-09-09 11:38:00,
2013-09-09 06:53:00,67.2,66.0,30.00,ESE,107,0.0,-999.0,96,-99.99,,,0.00,weatherlink.com 1.10,2013-09-09 11:53:00,
2013-09-09 07:08:00,67.4,66.0,30.00,ESE,107,0.0,-999.0,96,-99.99,,,0.00,weatherlink.com 1.10,2013-09-09 12:08:00,
2013-09-09 07:23:00,67.6,67.0,30.01,ESE,107,0.0,-999.0,96,-99.99,,,0.00,weatherlink.com 1.10,2013-09-09 12:23:00,
2013-09-09 07:38:00,68.1,67.0,30.02,ESE,107,0.0,-999.0,96,-99.99,,,0.00,weatherlink.com 1.10,2013-09-09 12:38:00,
2013-09-09 07:53:00,69.0,68.0,30.02,ESE,107,0.0,-999.0,97,-99.99,,,0.00,weatherlink.com 1.10,2013-09-09 12:53:00,
2013-09-09 08:08:00,69.9,69.0,30.02,ESE,107,0.0,-999.0,97,-99.99,,,0.00,weatherlink.com 1.10,2013-09-09 13:08:00,
2013-09-09 08:23:00,70.8,70.0,30.02,ESE,107,0.0,-999.0,96,-99.99,,,0.00,weatherlink.com 1.10,2013-09-09 13:23:00,
2013-09-09 08:38:00,71.8,70.0,30.02,NNW,337,0.0,-999.0,95,-99.99,,,0.00,weatherlink.com 1.10,2013-09-09 13:38:00,
2013-09-09 08:53:00,72.9,71.0,30.02,NNW,337,0.0,-999.0,95,-99.99,,,0.00,weatherlink.com 1.10,2013-09-09 13:53:00,
2013-09-09 09:08:00,74.2,72.0,30.03,NNW,338,0.0,-999.0,93,-99.99,,,0.00,weatherlink.com 1.10,2013-09-09 14:08:00,
2013-09-09 09:23:00,75.7,73.0,30.03,NNW,338,1.0,-999.0,91,-99.99,,,0.00,weatherlink.com 1.10,2013-09-09 14:23:00,
2013-09-09 09:38:00,77.1,74.0,30.04,NNW,339,0.0,-999.0,89,-99.99,,,0.00,weatherlink.com 1.10,2013-09-09 14:38:00,
2013-09-09 09:54:00,79.2,75.0,30.04,NE,41,0.0,-999.0,86,-99.99,,,0.00,weatherlink.com 1.10,2013-09-09 14:54:00,
2013-09-09 10:09:00,80.2,74.0,30.04,NE,41,0.0,-999.0,82,-99.99,,,0.00,weatherlink.com 1.10,2013-09-09 15:09:00,
2013-09-09 10:24:00,81.9,73.0,30.04,NE,41,1.0,-999.0,75,-99.99,,,0.00,weatherlink.com 1.10,2013-09-09 15:24:00,
2013-09-09 10:39:00,82.5,73.0,30.04,NE,41,1.0,-999.0,73,-99.99,,,0.00,weatherlink.com 1.10,2013-09-09 15:39:00,
2013-09-09 10:54:00,83.6,74.0,30.04,NE,46,0.0,-999.0,73,-99.99,,,0.00,weatherlink.com 1.10,2013-09-09 15:54:00,
2013-09-09 11:09:00,84.6,74.0,30.04,NNE,31,0.0,-999.0,70,-99.99,,,0.00,weatherlink.com 1.10,2013-09-09 16:09:00,
2013-09-09 11:24:00,85.2,75.0,30.04,ESE,123,2.0,-999.0,71,-99.99,,,0.00,weatherlink.com 1.10,2013-09-09 16:24:00,
2013-09-09 11:39:00,86.4,75.0,30.03,ESE,110,1.0,-999.0,69,-99.99,,,0.00,weatherlink.com 1.10,2013-09-09 16:39:00,
2013-09-09 11:54:00,87.5,74.0,30.03,SSE,148,2.0,-999.0,65,-99.99,,,0.00,weatherlink.com 1.10,2013-09-09 16:54:00,
2013-09-09 12:09:00,87.7,75.0,30.02,NE,37,4.0,-999.0,65,-99.99,,,0.00,weatherlink.com 1.10,2013-09-09 17:09:00,
2013-09-09 12:24:00,87.5,73.0,30.02,NNW,334,2.0,-999.0,62,-99.99,,,0.00,weatherlink.com 1.10,2013-09-09 17:24:00,
2013-09-09 12:39:00,87.5,73.0,30.02,NE,34,4.0,-999.0,62,-99.99,,,0.00,weatherlink.com 1.10,2013-09-09 17:39:00,
2013-09-09 12:54:00,87.8,72.0,30.02,NE,45,1.0,-999.0,59,-99.99,,,0.00,weatherlink.com 1.10,2013-09-09 17:54:00,
2013-09-09 13:09:00,87.8,73.0,30.01,NE,49,1.0,-999.0,61,-99.99,,,0.00,weatherlink.com 1.10,2013-09-09 18:09:00,
2013-09-09 13:24:00,88.2,73.0,30.01,NE,54,1.0,-999.0,61,-99.99,,,0.00,weatherlink.com 1.10,2013-09-09 18:24:00,
2013-09-09 13:39:00,88.8,71.0,30.00,East,90,4.0,-999.0,56,-99.99,,,0.00,weatherlink.com 1.10,2013-09-09 18:39:00,
2013-09-09 14:09:00,89.6,73.0,29.99,South,169,0.0,-999.0,58,-99.99,,,0.00,weatherlink.com 1.10,2013-09-09 19:09:00,
2013-09-09 14:24:00,89.7,73.0,29.99,East,96,4.0,-999.0,58,-99.99,,,0.00,weatherlink.com 1.10,2013-09-09 19:24:00,
2013-09-09 14:39:00,89.2,72.0,29.99,NE,45,1.0,-999.0,57,-99.99,,,0.00,weatherlink.com 1.10,2013-09-09 19:39:00,
2013-09-09 14:54:00,89.3,72.0,29.99,ESE,118,4.0,-999.0,56,-99.99,,,0.00,weatherlink.com 1.10,2013-09-09 19:54:00,
2013-09-09 15:09:00,89.1,72.0,29.99,East,94,2.0,-999.0,58,-99.99,,,0.00,weatherlink.com 1.10,2013-09-09 20:09:00,
2013-09-09 15:24:00,89.0,72.0,29.98,NE,56,1.0,-999.0,57,-99.99,,,0.00,weatherlink.com 1.10,2013-09-09 20:24:00,
2013-09-09 15:39:00,88.8,72.0,29.98,SSE,156,1.0,-999.0,58,-99.99,,,0.00,weatherlink.com 1.10,2013-09-09 20:39:00,
2013-09-09 15:54:00,88.5,70.0,29.98,ESE,104,0.0,-999.0,54,-99.99,,,0.00,weatherlink.com 1.10,2013-09-09 20:54:00,
2013-09-09 16:09:00,88.1,72.0,29.98,East,81,3.0,-999.0,59,-99.99,,,0.00,weatherlink.com 1.10,2013-09-09 21:09:00,
2013-09-09 16:24:00,87.7,74.0,29.98,SE,128,1.0,-999.0,63,-99.99,,,0.00,weatherlink.com 1.10,2013-09-09 21:24:00,
2013-09-09 16:39:00,86.4,76.0,29.97,ESE,112,0.0,-999.0,71,-99.99,,,0.00,weatherlink.com 1.10,2013-09-09 21:39:00,
2013-09-09 16:54:00,85.3,74.0,29.97,ENE,78,4.0,-999.0,69,-99.99,,,0.00,weatherlink.com 1.10,2013-09-09 21:54:00,
2013-09-09 17:09:00,85.1,74.0,29.97,ESE,105,5.0,-999.0,69,-99.99,,,0.00,weatherlink.com 1.10,2013-09-09 22:09:00,
2013-09-09 17:24:00,84.6,74.0,29.98,SE,127,1.0,-999.0,70,-99.99,,,0.00,weatherlink.com 1.10,2013-09-09 22:24:00,
2013-09-09 17:39:00,83.8,77.0,29.98,SE,127,0.0,-999.0,79,-99.99,,,0.00,weatherlink.com 1.10,2013-09-09 22:39:00,
2013-09-09 17:54:00,82.9,76.0,29.98,SE,127,0.0,-999.0,80,-99.99,,,0.00,weatherlink.com 1.10,2013-09-09 22:54:00,
2013-09-09 18:09:00,82.0,76.0,29.98,SSE,148,0.0,-999.0,81,-99.99,,,0.00,weatherlink.com 1.10,2013-09-09 23:09:00,
2013-09-09 18:24:00,81.1,75.0,29.98,SSE,148,0.0,-999.0,82,-99.99,,,0.00,weatherlink.com 1.10,2013-09-09 23:24:00,
2013-09-09 18:39:00,80.3,75.0,29.98,SSE,148,0.0,-999.0,84,-99.99,,,0.00,weatherlink.com 1.10,2013-09-09 23:39:00,
2013-09-09 18:54:00,79.4,74.0,29.98,SSE,148,0.0,-999.0,84,-99.99,,,0.00,weatherlink.com 1.10,2013-09-09 23:54:00,
2013-09-09 19:09:00,78.6,74.0,29.98,SSE,148,0.0,-999.0,85,-99.99,,,0.00,weatherlink.com 1.10,2013-09-10 00:09:00,
2013-09-09 19:24:00,77.9,74.0,30.00,SSE,148,0.0,-999.0,86,-99.99,,,0.00,weatherlink.com 1.10,2013-09-10 00:24:00,
2013-09-09 19:39:00,77.1,73.0,30.00,SSE,148,0.0,-999.0,88,-99.99,,,0.00,weatherlink.com 1.10,2013-09-10 00:39:00,
2013-09-09 19:54:00,76.4,73.0,30.01,SSE,148,0.0,-999.0,89,-99.99,,,0.00,weatherlink.com 1.10,2013-09-10 00:54:00,
2013-09-09 20:09:00,75.9,73.0,30.01,SSE,148,0.0,-999.0,90,-99.99,,,0.00,weatherlink.com 1.10,2013-09-10 01:09:00,
2013-09-09 20:24:00,75.5,73.0,30.01,SSE,148,0.0,-999.0,90,-99.99,,,0.00,weatherlink.com 1.10,2013-09-10 01:24:00,
2013-09-09 20:39:00,75.2,73.0,30.01,SSE,148,0.0,-999.0,91,-99.99,,,0.00,weatherlink.com 1.10,2013-09-10 01:39:00,
2013-09-09 20:54:00,75.2,73.0,30.02,SSE,148,0.0,-999.0,92,-99.99,,,0.00,weatherlink.com 1.10,2013-09-10 01:54:00,
2013-09-09 21:09:00,74.9,73.0,30.02,SSE,148,0.0,-999.0,92,-99.99,,,0.00,weatherlink.com 1.10,2013-09-10 02:09:00,
2013-09-09 21:24:00,74.6,72.0,30.02,SSE,148,0.0,-999.0,92,-99.99,,,0.00,weatherlink.com 1.10,2013-09-10 02:24:00,
2013-09-09 21:39:00,74.3,72.0,30.02,SSE,148,0.0,-999.0,93,-99.99,,,0.00,weatherlink.com 1.10,2013-09-10 02:39:00,
2013-09-09 21:54:00,74.0,72.0,30.03,SSE,148,0.0,-999.0,93,-99.99,,,0.00,weatherlink.com 1.10,2013-09-10 02:54:00,
2013-09-09 22:09:00,73.7,72.0,30.03,SSE,148,0.0,-999.0,93,-99.99,,,0.00,weatherlink.com 1.10,2013-09-10 03:09:00,
2013-09-09 22:24:00,73.5,72.0,30.04,SSE,148,0.0,-999.0,94,-99.99,,,0.00,weatherlink.com 1.10,2013-09-10 03:24:00,
2013-09-09 22:39:00,73.3,72.0,30.04,SSE,148,0.0,-999.0,94,-99.99,,,0.00,weatherlink.com 1.10,2013-09-10 03:39:00,
2013-09-09 22:54:00,73.1,71.0,30.04,SSE,148,0.0,-999.0,94,-99.99,,,0.00,weatherlink.com 1.10,2013-09-10 03:54:00,
2013-09-09 23:09:00,73.0,71.0,30.04,SSE,148,0.0,-999.0,94,-99.99,,,0.00,weatherlink.com 1.10,2013-09-10 04:09:00,
2013-09-09 23:24:00,72.8,71.0,30.05,SSE,148,0.0,-999.0,94,-99.99,,,0.00,weatherlink.com 1.10,2013-09-10 04:24:00,
2013-09-09 23:39:00,72.7,71.0,30.05,SSE,148,0.0,-999.0,94,-99.99,,,0.00,weatherlink.com 1.10,2013-09-10 04:39:00,
2013-09-09 23:54:00,72.5,71.0,30.05,SSE,148,0.0,-999.0,95,-99.99,,,0.00,weatherlink.com 1.10,2013-09-10 04:54:00,